GW6738 Weather Reports


time (UTC)temp
C
wind
direction
speed
KPH
gust
KPH
rain 1hr
cm
rain 24hr
cm
rain mn
cm
humidity
%
barometer
mb
20260510191009 27 193 1.6 6.4 0.00 0.00 0.00 28 1015.8
20260510190509 27 229 1.6 12.9 0.00 0.00 0.00 28 1015.8
20260510190026 27 216 3.2 12.9 0.00 0.00 0.00 28 1015.8
20260510185512 27 327 3.2 11.3 0.00 0.00 0.00 28 1015.8
20260510185016 27 151 1.6 11.3 0.00 0.00 0.00 32 1015.9
20260510184527 27 202 0.0 9.7 0.00 0.00 0.00 27 1015.9
20260510184011 27 120 3.2 9.7 0.00 0.00 0.00 26 1016.0
20260510183515 27 198 1.6 9.7 0.00 0.00 0.00 29 1016.0
20260510183020 27 222 1.6 9.7 0.00 0.00 0.00 28 1016.0
20260510182510 27 213 3.2 8.0 0.00 0.00 0.00 29 1016.0
20260510182012 26 217 0.0 6.4 0.00 0.00 0.00 30 1016.0
20260510181524 26 343 1.6 9.7 0.00 0.00 0.00 28 1016.1
20260510181009 26 256 3.2 9.7 0.00 0.00 0.00 29 1016.1
20260510180511 26 184 3.2 9.7 0.00 0.00 0.00 32 1016.1
20260510180026 26 292 1.6 14.5 0.00 0.00 0.00 30 1016.2
20260510175507 26 218 3.2 14.5 0.00 0.00 0.00 31 1016.3
20260510175006 26 82 1.6 6.4 0.00 0.00 0.00 30 1016.2
20260510174513 26 84 1.6 6.4 0.00 0.00 0.00 29 1016.3
20260510174005 26 265 0.0 6.4 0.00 0.00 0.00 29 1016.5
20260510173508 26 317 0.0 6.4 0.00 0.00 0.00 30 1016.4
20260510173017 26 343 1.6 6.4 0.00 0.00 0.00 28 1016.4
20260510172510 26 216 1.6 8.0 0.00 0.00 0.00 31 1016.5
20260510172010 26 275 1.6 8.0 0.00 0.00 0.00 30 1016.6
20260510171504 26 214 1.6 6.4 0.00 0.00 0.00 31 1016.6
20260510171003 26 117 3.2 9.7 0.00 0.00 0.00 29 1016.5
20260510170510 26 129 1.6 9.7 0.00 0.00 0.00 28 1016.5
20260510170006 26 119 4.8 11.3 0.00 0.00 0.00 28 1016.5
20260510165504 26 140 1.6 11.3 0.00 0.00 0.00 28 1016.6
20260510165005 26 131 3.2 11.3 0.00 0.00 0.00 26 1016.6
20260510164510 26 64 4.8 6.4 0.00 0.00 0.00 27 1016.6
20260510164009 26 215 3.2 6.4 0.00 0.00 0.00 26 1016.7
20260510163505 25 248 0.0 6.4 0.00 0.00 0.00 30 1016.8
20260510163014 26 236 1.6 6.4 0.00 0.00 0.00 29 1016.8
20260510162503 26 287 1.6 6.4 0.00 0.00 0.00 35 1016.9
20260510162008 26 103 1.6 6.4 0.00 0.00 0.00 37 1016.8
20260510161520 26 252 1.6 6.4 0.00 0.00 0.00 37 1016.8
20260510161011 26 311 1.6 6.4 0.00 0.00 0.00 37 1016.9
20260510160459 26 212 0.0 4.8 0.00 0.00 0.00 39 1017.0
20260510160006 26 126 1.6 4.8 0.00 0.00 0.00 38 1017.0
20260510155503 25 108 1.6 4.8 0.00 0.00 0.00 39 1017.0
20260510155008 25 20 0.0 4.8 0.00 0.00 0.00 42 1017.0
20260510154508 25 40 1.6 4.8 0.00 0.00 0.00 43 1017.1
20260510154008 25 115 1.6 4.8 0.00 0.00 0.00 41 1017.1
20260510153507 25 238 1.6 4.8 0.00 0.00 0.00 44 1017.1
20260510153018 25 204 1.6 4.8 0.00 0.00 0.00 45 1017.2
20260510152507 25 222 0.0 4.8 0.00 0.00 0.00 43 1017.2
20260510152007 25 68 1.6 4.8 0.00 0.00 0.00 46 1017.2
20260510151518 25 57 3.2 4.8 0.00 0.00 0.00 44 1017.1
20260510151004 24 92 1.6 3.2 0.00 0.00 0.00 46 1017.1
20260510150509 24 340 1.6 3.2 0.00 0.00 0.00 45 1017.1
20260510150027 24 248 1.6 4.8 0.00 0.00 0.00 47 1017.1
20260510145507 24 88 0.0 4.8 0.00 0.00 0.00 51 1017.2
20260510145002 23 68 0.0 4.8 0.00 0.00 0.00 52 1017.2
20260510144508 23 166 0.0 3.2 0.00 0.00 0.00 52 1017.2
20260510144004 22 22 0.0 4.8 0.00 0.00 0.00 57 1017.3
20260510143504 22 211 1.6 4.8 0.00 0.00 0.00 52 1017.2
20260510143012 22 236 0.0 4.8 0.00 0.00 0.00 53 1017.3
20260510142503 22 235 1.6 4.8 0.00 0.00 0.00 55 1017.3
20260510142005 22 236 0.0 3.2 0.00 0.00 0.00 57 1017.3
20260510141517 22 238 0.0 4.8 0.00 0.00 0.00 58 1017.4
20260510141005 22 207 0.0 4.8 0.00 0.00 0.00 59 1017.4
20260510140509 21 95 1.6 4.8 0.00 0.00 0.00 60 1017.3
20260510140018 21 64 3.2 4.8 0.00 0.00 0.00 60 1017.3
20260510135506 21 71 1.6 3.2 0.00 0.00 0.00 62 1017.3
20260510135008 21 84 1.6 3.2 0.00 0.00 0.00 65 1017.3
20260510134524 20 302 1.6 3.2 0.00 0.00 0.00 64 1017.3
20260510134003 20 280 0.0 4.8 0.00 0.00 0.00 66 1017.3
20260510133502 20 273 1.6 4.8 0.00 0.00 0.00 66 1017.2
20260510133009 20 274 1.6 3.2 0.00 0.00 0.00 69 1017.2
20260510132505 20 282 0.0 3.2 0.00 0.00 0.00 66 1017.1
20260510132004 20 242 0.0 3.2 0.00 0.00 0.00 68 1017.1
20260510131519 20 86 1.6 3.2 0.00 0.00 0.00 71 1017.1
20260510131004 19 171 0.0 3.2 0.00 0.00 0.00 73 1017.1
20260510130506 19 32 0.0 3.2 0.00 0.00 0.00 74 1017.1
20260510130018 18 67 0.0 3.2 0.00 0.00 0.00 75 1017.0
20260510125506 18 41 0.0 3.2 0.00 0.00 0.00 77 1017.0
20260510125011 17 38 0.0 3.2 0.00 0.00 0.00 80 1017.0
20260510124526 17 336 0.0 3.2 0.00 0.00 0.00 82 1017.0
20260510124011 16 290 0.0 3.2 0.00 0.00 0.00 84 1017.0
20260510123513 16 290 0.0 3.2 0.00 0.00 0.00 85 1016.9
20260510123006 15 286 0.0 3.2 0.00 0.00 0.00 86 1016.8
20260510122505 15 271 0.0 3.2 0.00 0.00 0.00 88 1016.7
20260510122005 15 274 0.0 3.2 0.00 0.00 0.00 89 1016.6
20260510121512 14 292 0.0 3.2 0.00 0.00 0.00 90 1016.5
20260510121007 14 297 0.0 3.2 0.00 0.00 0.00 91 1016.5
20260510120508 13 297 0.0 3.2 0.00 0.00 0.00 92 1016.4
20260510120027 13 316 0.0 3.2 0.00 0.00 0.00 93 1016.2
20260510115503 13 9 0.0 3.2 0.00 0.00 0.00 93 1016.1
20260510115007 13 63 0.0 3.2 0.00 0.00 0.00 94 1016.0
20260510114522 13 96 0.0 1.6 0.00 0.00 0.00 94 1016.0
20260510114011 13 96 0.0 1.6 0.00 0.00 0.00 94 1015.9
20260510113506 12 105 0.0 3.2 0.00 0.00 0.00 94 1015.9
20260510113026 12 112 0.0 3.2 0.00 0.00 0.00 94 1015.8
20260510112511 12 112 0.0 0.0 0.00 0.00 0.00 94 1015.7
20260510112004 12 112 0.0 0.0 0.00 0.00 0.00 94 1015.8
20260510111527 12 112 0.0 0.0 0.00 0.00 0.00 94 1015.7
20260510111003 12 112 0.0 0.0 0.00 0.00 0.00 94 1015.6
20260510110508 12 112 0.0 0.0 0.00 0.00 0.00 93 1015.5
20260510110023 12 112 0.0 0.0 0.00 0.00 0.00 93 1015.4
20260510105504 12 112 0.0 0.0 0.00 0.00 0.00 93 1015.3
20260510105004 12 112 0.0 0.0 0.00 0.00 0.00 93 1015.3
20260510104520 12 112 0.0 0.0 0.00 0.00 0.00 93 1015.2
20260510104004 12 112 0.0 0.0 0.00 0.00 0.00 93 1015.0
20260510103508 12 112 0.0 0.0 0.00 0.00 0.00 93 1014.9
20260510103023 12 112 0.0 0.0 0.00 0.00 0.00 92 1014.8
20260510102509 12 112 0.0 0.0 0.00 0.00 0.00 93 1014.7
20260510102009 12 112 0.0 0.0 0.00 0.00 0.00 93 1014.6
20260510101526 12 112 0.0 0.0 0.00 0.00 0.00 93 1014.5
20260510101008 12 112 0.0 0.0 0.00 0.00 0.00 93 1014.5
20260510100504 12 112 0.0 0.0 0.00 0.00 0.00 92 1014.5
20260510100010 12 112 0.0 0.0 0.00 0.00 0.00 92 1014.4
20260510095506 12 112 0.0 0.0 0.00 0.00 0.00 92 1014.3
20260510095003 12 112 0.0 0.0 0.00 0.00 0.00 92 1014.3
20260510094525 12 112 0.0 3.2 0.00 0.00 0.00 93 1014.2
20260510094007 13 112 0.0 3.2 0.00 0.00 0.00 93 1014.2
20260510093508 13 112 0.0 3.2 0.00 0.00 0.00 93 1014.3
20260510093020 13 112 0.0 0.0 0.00 0.00 0.00 92 1014.3
20260510092510 13 112 0.0 0.0 0.00 0.00 0.00 92 1014.2
20260510092013 13 112 0.0 0.0 0.00 0.00 0.00 92 1014.2
20260510091527 13 112 0.0 0.0 0.00 0.00 0.00 92 1014.1
20260510091007 13 112 0.0 0.0 0.00 0.00 0.00 92 1014.1
20260510090510 13 112 0.0 0.0 0.00 0.00 0.00 92 1014.0
20260510090024 13 112 0.0 0.0 0.00 0.00 0.00 92 1014.0
20260510085506 13 112 0.0 0.0 0.00 0.00 0.00 92 1014.0
20260510085005 13 112 0.0 0.0 0.00 0.00 0.00 92 1013.8
20260510084514 13 112 0.0 0.0 0.00 0.00 0.00 92 1013.7
20260510084006 13 112 0.0 0.0 0.00 0.00 0.00 92 1013.7
20260510083509 13 112 0.0 0.0 0.00 0.00 0.00 92 1013.6
20260510083020 13 112 0.0 0.0 0.00 0.00 0.00 92 1013.5
20260510082504 13 112 0.0 0.0 0.00 0.00 0.00 92 1013.6
20260510082011 13 112 0.0 0.0 0.00 0.00 0.00 92 1013.6
20260510081522 13 112 0.0 0.0 0.00 0.00 0.00 92 1013.5
20260510081006 13 112 0.0 0.0 0.00 0.00 0.00 92 1013.4
20260510080509 13 112 0.0 0.0 0.00 0.00 0.00 92 1013.3
20260510080029 14 112 0.0 0.0 0.00 0.00 0.00 92 1013.3
20260510075511 14 112 0.0 0.0 0.00 0.00 0.00 92 1013.2
20260510075007 14 112 0.0 0.0 0.00 0.00 0.00 92 1013.2
20260510074533 14 112 0.0 0.0 0.00 0.00 0.00 92 1013.2
20260510074006 14 112 0.0 0.0 0.00 0.00 0.00 92 1013.1
20260510073507 14 112 0.0 0.0 0.00 0.00 0.00 91 1013.1
20260510073016 14 112 0.0 0.0 0.00 0.00 0.00 92 1013.1
20260510072506 14 112 0.0 0.0 0.00 0.00 0.00 92 1013.1
20260510072007 14 112 0.0 0.0 0.00 0.00 0.00 91 1013.1
20260510071519 14 112 0.0 0.0 0.00 0.00 0.00 91 1013.0
20260510071004 15 112 0.0 0.0 0.00 0.00 0.00 91 1013.1
20260510070505 15 112 0.0 0.0 0.00 0.00 0.00 91 1013.1
20260510070025 15 112 0.0 0.0 0.00 0.00 0.00 91 1013.1
20260510065507 15 112 0.0 0.0 0.00 0.00 0.00 91 1013.0
20260510065007 15 112 0.0 0.0 0.00 0.00 0.00 91 1013.0
20260510064530 15 112 0.0 0.0 0.00 0.00 0.00 91 1013.0
20260510064010 15 112 0.0 0.0 0.00 0.00 0.00 91 1013.0
20260510063510 15 112 0.0 0.0 0.00 0.00 0.00 91 1013.0
20260510063014 15 112 0.0 0.0 0.00 0.00 0.00 91 1013.1
20260510062512 15 112 0.0 3.2 0.00 0.00 0.00 91 1013.0
20260510062008 15 112 0.0 3.2 0.00 0.00 0.00 91 1013.0
20260510061527 15 112 0.0 3.2 0.00 0.00 0.00 91 1013.1
20260510061011 15 112 0.0 0.0 0.00 0.00 0.00 90 1013.2
20260510060508 15 112 0.0 0.0 0.00 0.00 0.00 90 1013.3
20260510060042 15 112 0.0 0.0 0.00 0.00 0.00 90 1013.3
20260510055508 15 112 0.0 0.0 0.00 0.00 0.00 90 1013.3
20260510055012 15 112 0.0 3.2 0.00 0.00 0.00 90 1013.2
20260510054525 15 112 0.0 3.2 0.00 0.00 0.00 89 1013.2
20260510054010 15 112 0.0 0.0 0.00 0.00 0.00 89 1013.2
20260510053507 15 112 0.0 3.2 0.00 0.00 0.00 89 1013.1
20260510053027 16 112 0.0 3.2 0.00 0.00 0.00 89 1013.1
20260510052508 16 112 0.0 0.0 0.00 0.00 0.00 88 1013.3
20260510052009 16 112 0.0 3.2 0.00 0.00 0.00 88 1013.3
20260510051516 16 112 0.0 3.2 0.00 0.00 0.00 88 1013.3
20260510051011 16 112 0.0 3.2 0.00 0.00 0.00 88 1013.3
20260510050510 16 112 0.0 0.0 0.00 0.00 0.00 87 1013.2
20260510050023 16 112 0.0 0.0 0.00 0.00 0.00 87 1013.2
20260510045508 16 112 0.0 0.0 0.00 0.00 0.00 86 1013.2
20260510045008 16 112 0.0 3.2 0.00 0.00 0.00 86 1013.2
20260510044524 16 112 0.0 3.2 0.00 0.00 0.00 86 1013.3
20260510044014 16 112 0.0 1.6 0.00 0.00 0.00 86 1013.3
20260510043512 16 112 0.0 3.2 0.00 0.00 0.00 86 1013.4
20260510043027 16 112 0.0 3.2 0.00 0.00 0.00 85 1013.3
20260510042507 16 112 0.0 1.6 0.00 0.00 0.00 85 1013.4
20260510042010 17 112 0.0 3.2 0.00 0.00 0.00 85 1013.4
20260510041531 17 105 0.0 3.2 0.00 0.00 0.00 85 1013.4
20260510041008 17 105 0.0 0.0 0.00 0.00 0.00 84 1013.2
20260510040507 17 105 0.0 0.0 0.00 0.00 0.00 84 1013.2
20260510040020 17 105 0.0 3.2 0.00 0.00 0.00 84 1013.2
20260510035507 17 105 0.0 3.2 0.00 0.00 0.00 83 1013.3
20260510035008 17 105 0.0 3.2 0.00 0.00 0.00 83 1013.3
20260510034522 17 105 0.0 3.2 0.00 0.00 0.00 83 1013.2
20260510034010 17 105 0.0 3.2 0.00 0.00 0.00 83 1013.2
20260510033509 17 105 0.0 3.2 0.00 0.00 0.00 82 1013.3
20260510033026 17 105 0.0 3.2 0.00 0.00 0.00 82 1013.2
20260510032511 17 105 0.0 3.2 0.00 0.00 0.00 82 1013.3
20260510032012 17 105 0.0 3.2 0.00 0.00 0.00 82 1013.3
20260510031545 17 105 0.0 3.2 0.00 0.00 0.00 82 1013.3
20260510031010 17 105 0.0 0.0 0.00 0.00 0.00 81 1013.3
20260510030507 17 105 0.0 0.0 0.00 0.00 0.00 81 1013.2
20260510030029 17 105 0.0 0.0 0.00 0.00 0.00 80 1013.3
20260510025507 17 105 0.0 0.0 0.00 0.00 0.00 80 1013.2
20260510025012 18 105 0.0 0.0 0.00 0.00 0.00 80 1013.2
20260510024535 18 105 0.0 0.0 0.00 0.00 0.00 80 1013.2
20260510024003 18 105 0.0 0.0 0.00 0.00 0.00 79 1013.1
20260510023503 18 105 0.0 3.2 0.00 0.00 0.00 78 1013.1
20260510023013 18 105 0.0 3.2 0.00 0.00 0.00 78 1013.1
20260510022504 18 105 0.0 3.2 0.00 0.00 0.00 77 1013.1
20260510022004 18 105 0.0 3.2 0.00 0.00 0.00 77 1013.0
20260510021510 18 105 0.0 3.2 0.00 0.00 0.00 76 1012.9
20260510021003 18 105 0.0 3.2 0.00 0.00 0.00 76 1012.8
20260510020506 18 105 0.0 3.2 0.00 0.00 0.00 76 1012.8
20260510020016 19 105 1.6 3.2 0.00 0.00 0.00 75 1012.8
20260510015507 19 180 0.0 3.2 0.00 0.00 0.00 75 1012.8
20260510015003 19 180 0.0 3.2 0.00 0.00 0.00 74 1012.7
20260510014532 19 180 0.0 3.2 0.00 0.00 0.00 74 1012.7
20260510014007 19 180 0.0 3.2 0.00 0.00 0.00 74 1012.7
20260510013510 19 176 0.0 3.2 0.00 0.00 0.00 74 1012.5
20260510013010 19 176 0.0 0.0 0.00 0.00 0.00 73 1012.4
20260510012505 20 176 0.0 3.2 0.00 0.00 0.00 73 1012.4
20260510012004 20 176 0.0 3.2 0.00 0.00 0.00 72 1012.4
20260510011512 20 176 0.0 3.2 0.00 0.00 0.00 72 1012.3
20260510011008 20 176 0.0 3.2 0.00 0.00 0.00 72 1012.1
20260510010504 20 128 0.0 3.2 0.00 0.00 0.00 71 1012.0
20260510010016 20 116 0.0 3.2 0.00 0.00 0.00 71 1012.0
20260510005507 20 116 0.0 3.2 0.00 0.00 0.00 70 1011.9
20260510005004 20 126 0.0 3.2 0.00 0.00 0.00 70 1011.6
20260510004519 20 135 0.0 3.2 0.00 0.00 0.00 69 1011.6
20260510004008 20 179 0.0 3.2 0.00 0.00 0.00 69 1011.5
20260510003507 21 170 0.0 3.2 0.00 0.00 0.00 69 1011.5
20260510003024 21 168 0.0 3.2 0.00 0.00 0.00 68 1011.4
20260510002510 21 184 0.0 3.2 0.00 0.00 0.00 68 1011.4
20260510002010 21 223 0.0 3.2 0.00 0.00 0.00 67 1011.2
20260510001505 21 223 0.0 3.2 0.00 0.00 0.00 67 1011.1
20260510001004 21 223 0.0 3.2 0.00 0.00 0.00 67 1011.2
20260510000505 21 271 0.0 3.2 0.00 0.00 0.00 66 1011.2
20260510000009 21 267 0.0 4.8 0.00 0.00 0.00 66 1011.1
20260509235504 21 133 0.0 4.8 0.00 0.00 0.00 66 1010.9
20260509235004 21 105 1.6 4.8 0.00 0.00 0.00 65 1011.0
20260509234519 21 183 0.0 3.2 0.00 0.00 0.00 65 1010.9
20260509234005 21 96 1.6 3.2 0.00 0.00 0.00 65 1010.9
20260509233505 21 209 0.0 4.8 0.00 0.00 0.00 64 1010.9
20260509233022 22 199 1.6 4.8 0.00 0.00 0.00 64 1011.0
20260509232509 22 236 0.0 3.2 0.00 0.00 0.00 64 1010.9
20260509232007 22 210 1.6 4.8 0.00 0.00 0.00 64 1010.6
20260509231524 22 217 1.6 4.8 0.00 0.00 0.00 62 1010.4
20260509231009 22 245 1.6 4.8 0.00 0.00 0.00 62 1010.5
20260509230503 22 232 0.0 16.1 0.00 0.00 0.00 62 1010.4
20260509230008 22 215 1.6 16.1 0.00 0.00 0.00 62 1010.4
20260509225504 22 142 3.2 12.9 0.00 0.00 0.00 61 1010.3
20260509225002 22 190 1.6 4.8 0.00 0.00 0.00 60 1010.4
20260509224514 22 251 1.6 4.8 0.00 0.00 0.00 60 1010.2
20260509224004 22 240 1.6 4.8 0.00 0.00 0.00 59 1010.1
20260509223511 22 204 1.6 3.2 0.00 0.00 0.00 59 1010.0
20260509223020 22 234 0.0 3.2 0.00 0.00 0.00 59 1010.0
20260509222509 23 240 1.6 4.8 0.00 0.00 0.00 58 1010.0
20260509222009 23 211 0.0 6.4 0.00 0.00 0.00 58 1010.1
20260509221526 23 207 3.2 6.4 0.00 0.00 0.00 58 1010.1
20260509221007 23 243 1.6 6.4 0.00 0.00 0.00 57 1010.0
20260509220508 23 224 1.6 6.4 0.00 0.00 0.00 57 1010.0
20260509220025 23 233 1.6 6.4 0.00 0.00 0.00 57 1010.0
20260509215510 23 225 1.6 6.4 0.00 0.00 0.00 56 1010.0
20260509215006 23 180 1.6 9.7 0.00 0.00 0.00 54 1010.1
20260509214525 23 223 4.8 9.7 0.00 0.00 0.00 54 1010.1
20260509214007 24 177 1.6 8.0 0.00 0.00 0.00 54 1010.0
20260509213505 24 196 3.2 9.7 0.00 0.00 0.00 54 1010.1
20260509213016 23 220 3.2 9.7 0.00 0.00 0.00 55 1010.0
20260509212505 24 116 1.6 9.7 0.00 0.00 0.00 55 1010.0
20260509212006 23 215 1.6 6.4 0.00 0.00 0.00 55 1009.9
20260509211545 23 225 3.2 8.0 0.00 0.00 0.00 54 1009.9
20260509211010 23 250 3.2 8.0 0.00 0.00 0.00 55 1010.1
20260509210506 23 304 3.2 6.4 0.00 0.00 0.00 56 1009.9
20260509210022 23 207 1.6 9.7 0.00 0.00 0.00 57 1009.9
20260509205507 23 214 3.2 9.7 0.00 0.00 0.00 57 1009.9
20260509205014 23 76 3.2 8.0 0.00 0.00 0.00 56 1009.9
20260509204510 23 98 1.6 14.5 0.00 0.00 0.00 56 1009.8
20260509204006 23 192 1.6 14.5 0.00 0.00 0.00 56 1009.7
20260509203506 23 143 0.0 9.7 0.00 0.00 0.00 56 1009.7
20260509203031 23 196 3.2 9.7 0.00 0.00 0.00 56 1009.8
20260509202509 23 229 3.2 11.3 0.00 0.00 0.00 56 1010.0
20260509202008 23 196 3.2 11.3 0.00 0.00 0.00 56 1010.1
20260509201521 23 220 4.8 9.7 0.00 0.00 0.00 55 1010.0
20260509201008 23 189 3.2 14.5 0.00 0.00 0.00 57 1009.9
20260509200508 23 107 1.6 14.5 0.00 0.00 0.00 57 1010.0
20260509200028 23 212 4.8 11.3 0.00 0.00 0.00 56 1010.2
20260509195508 23 228 6.4 11.3 0.00 0.00 0.00 56 1010.1
20260509195007 23 196 4.8 11.3 0.00 0.00 0.00 56 1010.2
20260509194524 22 223 6.4 11.3 0.00 0.00 0.00 61 1010.2
20260509194011 22 111 1.6 9.7 0.00 0.00 0.00 61 1010.2
20260509193505 22 219 1.6 9.7 0.00 0.00 0.00 61 1010.4
20260509193014 22 248 1.6 11.3 0.00 0.00 0.00 62 1010.3
20260509192506 22 217 3.2 11.3 0.00 0.00 0.00 63 1010.5
20260509192007 21 229 1.6 9.7 0.00 0.00 0.00 63 1010.5
20260509191528 22 218 1.6 9.7 0.00 0.00 0.00 62 1010.7